MMS 4

Last updated on Sat Aug 15 2026 00:02:52 GMT+0000 (Coordinated Universal Time)

1 40485U 15011D 26226.66670139 -.00001898 00000+0 00000+0 0 9990 2 40485 72.7360 348.0911 8282799 168.7491 143.8250 0.28340893 1354
UTC large
Height (km)
Speed (km/s)
/
Latitude / Longitude
Inclination (degrees)
Orbital Period (minutes)
Azimuth
Elevation
Range (km)
Doppler Factor

Next 0 passes for location: London (51.5072 / 0.1276)

No passes found over London.
MMS 4